This demonstration page uses our WeatherBlox Daily Observations layout. Learn more.

Left ArrowRight Arrow

Hourly Observations for December 27, 2020

Temp ( °F °C ) Dew Point ( °F °C ) Humidity (%) Winds ( mph kmh ) Pressure ( in mb ) Visibility ( mi km ) Precip ( " mm )
12:54 am 00:54 Clear 25 -3.9 22 -5.6 88 88 N 6 9 29.7 1006 10 16.0934 0 0
1:54 am 01:54 Clear 25 -3.9 22 -5.6 88 88 N 5 7 29.7 1006 10 16.0934 0 0
2:54 am 02:54 Clear 26 -3.3 22 -5.6 84 84 N 3 6 29.7 1006 10 16.0934 0 0
3:54 am 03:54 Clear 27 -2.8 23 -5 85 85 N 5 7 29.69 1006 10 16.0934 0 0
4:54 am 04:54 Mostly Clear 28 -2.2 24 -4.4 85 85 Calm 29.71 1006 10 16.0934 0 0
5:54 am 05:54 Cloudy 30 -1.1 26 -3.3 85 85 N 6 9 29.72 1006 10 16.0934 0 0
6:54 am 06:54 Cloudy 31 -0.6 27 -2.8 85 85 undefined N/A 29.74 1007 10 16.0934 0 0
7:54 am 07:54 Cloudy 31 -0.6 26 -3.3 82 82 NNW 8 13 29.76 1008 10 16.0934 0.001 0.001
8:54 am 08:54 Cloudy 32 0 26 -3.3 79 79 NNW 9 15 29.79 1009 10 16.0934 0 0
9:54 am 09:54 Mostly Cloudy 35 1.7 27 -2.8 72 72 NNW 14 22 29.8 1009 10 16.0934 0 0
10:54 am 10:54 Cloudy 36 2.2 28 -2.2 73 73 NNW 15 24 29.85 1011 10 16.0934 0 0
11:54 am 11:54 Mostly Cloudy 37 2.8 28 -2.2 70 70 NNW 17 28 29.87 1012 10 16.0934 0 0
12:03 pm 12:03 Cloudy with Light Snow 38 3.3 29 -1.7 70 70 NNW 16 26 29.88 1012 9 14.48406 0.001 0.001
12:20 pm 12:20 Cloudy with Light Snow 37 2.8 29 -1.7 73 73 NNW 15 24 29.9 1012 9 14.48406 0.001 0.001
12:39 pm 12:39 Cloudy with Light Snow 38 3.3 31 -0.6 76 76 NNW 18 30 29.89 1012 9 14.48406 0.001 0.001
12:54 pm 12:54 Cloudy with Light Rain 37 2.8 30 -1.1 76 76 NNW 21 33 29.89 1012 10 16.0934 0.001 0.001
1:04 pm 13:04 Cloudy with Light Rain 37 2.8 31 -0.6 79 79 NNW 17 28 29.91 1013 10 16.0934 0.001 0.001
1:14 pm 13:14 Cloudy 37 2.8 31 -0.6 79 79 NNW 17 28 29.91 1013 10 16.0934 0.001 0.001
1:46 pm 13:46 Cloudy 40 4.4 32 0 73 73 NW 16 26 29.91 1013 10 16.0934 0.001 0.001
1:54 pm 13:54 Mostly Cloudy 41 5 31 -0.6 67 67 NNW 21 33 29.9 1013 10 16.0934 0.001 0.001
2:54 pm 14:54 Cloudy 41 5 28 -2.2 60 60 NW 26 43 29.93 1013 10 16.0934 0 0
3:05 pm 15:05 Cloudy 41 5 28 -2.2 60 60 NW 24 39 29.96 1014 10 16.0934 0 0
3:54 pm 15:54 Cloudy 39 3.9 26 -3.3 60 60 NNW 20 31 29.99 1016 10 16.0934 0 0
4:54 pm 16:54 Cloudy 38 3.3 25 -3.9 60 60 NW 22 35 30.03 1017 10 16.0934 0 0
5:54 pm 17:54 Cloudy 36 2.2 26 -3.3 67 67 N 16 26 30.05 1018 10 16.0934 0 0
6:02 pm 18:02 Cloudy 36 2.2 26 -3.3 67 67 N 17 28 30.08 1019 10 16.0934 0 0
6:11 pm 18:11 Cloudy 36 2.2 26 -3.3 67 67 NNW 17 28 30.08 1019 10 16.0934 0 0
6:50 pm 18:50 Cloudy 34 1 27 -3 75 75 N 20 31 30.11 1020 10 16.0934 0 0
6:54 pm 18:54 Cloudy 34 1.1 26 -3.3 73 73 N 20 31 30.1 1019 10 16.0934 0 0
7:54 pm 19:54 Cloudy 32 0 22 -5.6 66 66 N 16 26 30.15 1021 10 16.0934 0 0
8:54 pm 20:54 Cloudy 31 -0.6 21 -6.1 67 67 N 13 20 30.21 1023 10 16.0934 0 0
9:54 pm 21:54 Cloudy 30 -1.1 20 -6.7 66 66 NW 15 24 30.24 1024 10 16.0934 0 0
10:54 pm 22:54 Cloudy 29 -1.7 19 -7.2 66 66 NNW 12 19 30.26 1025 10 16.0934 0 0
11:54 pm 23:54 Cloudy 28 -2.2 19 -7.2 69 69 N 13 20 30.27 1025 10 16.0934 0 0

Powered by AerisWeather